This is the latest recevied weather packets stored in our database for station/object F5MAP-5. If no packets are shown the sender has not sent any weather packets the latest 10 day(s).
| Time | Temp. | Humidity | Pressure | Rain* | Wind** | Luminosity | Snow |
|---|---|---|---|---|---|---|---|
| 1778257933 | 20.56° C | 54% | 1013.4 hPa | 0 mm | - | 35 W/m² | - |
| 1778257332 | 20.56° C | 54% | 1013.4 hPa | 0 mm | - | 40 W/m² | - |
| 1778256732 | 21.11° C | 56% | 1013.4 hPa | 0 mm | - | 39 W/m² | - |
| 1778255532 | 21.11° C | 53% | 1013.6 hPa | 0 mm | - | 123 W/m² | - |
| 1778254932 | 21.11° C | 52% | 1013.6 hPa | 0 mm | - | 137 W/m² | - |
| 1778254332 | 21.11° C | 52% | 1013.5 hPa | 0 mm | - | 93 W/m² | - |
| 1778253732 | 21.11° C | 53% | 1013.5 hPa | 0 mm | - | 56 W/m² | - |
| 1778253132 | 21.11° C | 50% | 1013.6 hPa | 0 mm | - | 42 W/m² | - |
| 1778252534 | 21.11° C | 51% | 1013.7 hPa | 0 mm | - | 39 W/m² | - |
| 1778251932 | 21.11° C | 50% | 1013.8 hPa | 0 mm | - | 39 W/m² | - |
| 1778251332 | 21.11° C | 50% | 1014.1 hPa | 0 mm | - | 40 W/m² | - |
| 1778250732 | 21.11° C | 52% | 1014.1 hPa | 0 mm | - | 42 W/m² | - |
| 1778249532 | 21.67° C | 54% | 1014.2 hPa | 0 mm | - | 46 W/m² | - |
| 1778248932 | 21.11° C | 55% | 1014.4 hPa | 0 mm | - | 49 W/m² | - |
| 1778248338 | 21.11° C | 56% | 1014.4 hPa | 0 mm | - | 53 W/m² | - |
| 1778247733 | 21.67° C | 55% | 1014.4 hPa | 0 mm | - | 79 W/m² | - |
| 1778247133 | 21.67° C | 54% | 1014.5 hPa | 0 mm | - | 728 W/m² | - |
| 1778246533 | 21.67° C | 56% | 1014.6 hPa | 0 mm | - | 742 W/m² | - |
| 1778245332 | 21.67° C | 57% | 1014.8 hPa | 0 mm | - | 765 W/m² | - |
| 1778244733 | 21.11° C | 58% | 1015 hPa | 0 mm | - | 777 W/m² | - |
| 1778244132 | 21.11° C | 57% | 1015.1 hPa | 0 mm | - | 777 W/m² | - |
| 1778243532 | 21.11° C | 59% | 1015.2 hPa | 0 mm | - | 788 W/m² | - |
| 1778242932 | 20.56° C | 61% | 1015.3 hPa | 0 mm | - | 802 W/m² | - |
| 1778242333 | 20.56° C | 61% | 1015.4 hPa | 0 mm | - | 789 W/m² | - |
| 1778241732 | 20° C | 63% | 1015.5 hPa | 0 mm | - | 793 W/m² | - |
* Rain latest hour (hover to see other rain measurements)
** Current wind speed in m/s (hover to see current wind gust speed)